STARLINK-1157 (45055 NORAD) Tracking and Keplerian Element Data

This shows tracking and keplerian element data for the satellite.

Feedback or suggestion? Click here.




ElementValue
Catalog45055
NameSTARLINK-1157
Epoch Orbit324
Epoch Day47.91667824
Epoch Year2020
RAAN145.0508
Inclination52.9982
Eccentricity0.0001506
Argument of Perigee62.3102
Mean Anonmoly249.1982
Mean Motion15.6190865
Decay Rate0.00565402
L11 45055U 20006M 20047.91667824 .00565402 00000-0 59523-2 0 9991
L22 45055 52.9982 145.0508 0001506 62.3102 249.1982 15.61908650 3240

Live tracking and technical data element details for STARLINK-1157 (NORAD 45055). STARLINK-1157 can be tracked NOW for your location showing map with azimuth and elevation plus other details from your city location.

Track the satellite on the map from your city or location and see movement details for azimuth, elevation, latitude, longitude, range, height, and movement on the map or in text.







IsCatalogInMostPopularTable: catalog: 45055, numindb: 1
Update: records affected: 1



GetName: 45055 STARLINK-1157

Hit Count: updated at: Tue, 18 Feb 2020 00:11:18 GMT